, AK

(GMT )
St. Marys

Weather History for PASM - February, 2013

Change the Weather History Date:

Friday, February 15, 2013

  Actual Average Record
Temperature  
Mean Temperature -9 °F -  
Max Temperature -2 °F 16 °F 33 °F (2006)
Min Temperature -16 °F 8 °F -16 °F (2008)
Degree Days  
Heating Degree Days 74    
Moisture  
Dew Point -16 °F    
Average Humidity 73    
Maximum Humidity 92    
Minimum Humidity 54    
Precipitation  
Precipitation 0.00 in - - ()
Sea Level Pressure  
Sea Level Pressure 29.94 in    
Wind  
Wind Speed 6 mph (SW)    
Max Wind Speed 10 mph    
Max Gust Speed -    
Visibility 6 miles    
Events      
Averages and records for this station are not official NWS values.
T = Trace of Precipitation, MM = Missing Value Source: NWS Daily Summary

Daily Weather History Graph

Daily Weather History Graph

Search for Another Location

Airport or City:

Trip Planner

Search our weather history database for the weather conditions in past years. The results will help you decide how hot, cold, wet, or windy it might be!

Date:

Astronomy

Feb. 15, 2013 Rise Set
Actual Time 9:37 AM AKST 6:38 PM AKST
Civil Twilight 8:50 AM AKST 7:25 PM AKST
Nautical Twilight 7:58 AM AKST 8:17 PM AKST
Astronomical Twilight 7:07 AM AKST 9:08 PM AKST
Moon 10:21 AM AKST (2/15) 1:45 AM AKST (2/15)
Length of Visible Light 10h 34m
Length of Day
9h 00m
Waxing Crescent, 31% of the Moon is Illuminated
Feb 15
Waxing Crescent
Feb 17
First Quarter
Feb 25
Full
Mar 4
Last Quarter
Mar 11
New

Hourly Weather History & Observations

Time (AKST) Temp. Windchill Dew Point Humidity Pressure Visibility Wind Dir Wind Speed Gust Speed Precip Events Conditions
12:16 AM -14.8 °F -30.8 °F -18.4 °F 84% 29.84 in 10.0 mi WSW 6.9 mph - N/A   Clear
12:36 AM -14.8 °F -29.1 °F -20.2 °F 77% 29.85 in 10.0 mi WSW 5.8 mph - N/A   Partly Cloudy
12:56 AM -14.8 °F -27.2 °F -20.2 °F 77% 29.86 in 10.0 mi SSW 4.6 mph - N/A   Partly Cloudy
1:16 AM -11.2 °F -26.4 °F -23.8 °F 54% 29.86 in 10.0 mi WSW 6.9 mph - N/A   Clear
1:36 AM -13.0 °F -22.7 °F -18.4 °F 77% 29.86 in 10.0 mi South 3.5 mph - N/A   Clear
1:56 AM -16.6 °F -29.3 °F -27.4 °F 58% 29.87 in 10.0 mi SSW 4.6 mph - N/A   Clear
2:16 AM -16.6 °F -31.3 °F -23.8 °F 70% 29.87 in 10.0 mi SSW 5.8 mph - N/A   Clear
2:36 AM -14.8 °F -29.1 °F -23.8 °F 64% 29.87 in 10.0 mi SSW 5.8 mph - N/A   Clear
3:16 AM -14.8 °F -29.1 °F -22.0 °F 70% 29.87 in 10.0 mi SSW 5.8 mph - N/A   Partly Cloudy
3:36 AM -14.8 °F -29.1 °F -18.4 °F 84% 29.87 in 10.0 mi SSW 5.8 mph - N/A   Mostly Cloudy
3:56 AM -14.8 °F -30.8 °F -23.8 °F 64% 29.87 in 7.0 mi SSW 6.9 mph - N/A   Overcast
4:16 AM -14.8 °F -30.8 °F -18.4 °F 84% 29.87 in 5.0 mi South 6.9 mph - N/A   Mostly Cloudy
4:36 AM -14.8 °F -32.2 °F -23.8 °F 64% 29.87 in 1.8 mi SSW 8.1 mph - N/A   Overcast
4:56 AM -14.8 °F -30.8 °F -22.0 °F 70% 29.87 in 5.0 mi SSW 6.9 mph - N/A   Mostly Cloudy
5:16 AM -14.8 °F -33.5 °F -18.4 °F 84% 29.86 in 3.0 mi SSW 9.2 mph - N/A   Overcast
5:36 AM -14.8 °F -33.5 °F -20.2 °F 77% 29.85 in 1.8 mi SSW 9.2 mph - N/A   Overcast
5:56 AM -14.8 °F -33.5 °F -20.2 °F 77% 29.86 in 3.0 mi SSW 9.2 mph - N/A   Overcast
6:16 AM -13.0 °F -31.3 °F -18.4 °F 77% 29.86 in 3.0 mi SSW 9.2 mph - N/A   Overcast
6:36 AM -13.0 °F -31.3 °F -22.0 °F 64% 29.86 in 2.5 mi SSW 9.2 mph - N/A   Overcast
6:56 AM -11.2 °F -26.4 °F -16.6 °F 77% 29.86 in 2.5 mi SSW 6.9 mph - N/A   Overcast
7:16 AM -11.2 °F -26.4 °F -16.6 °F 77% 29.86 in 5.0 mi SSW 6.9 mph - N/A   Overcast
7:36 AM -11.2 °F -24.8 °F -18.4 °F 70% 29.87 in 3.0 mi SSW 5.8 mph - N/A   Overcast
7:56 AM -9.4 °F -25.6 °F -14.8 °F 77% 29.87 in 3.0 mi SSW 8.1 mph - N/A   Overcast
8:16 AM -9.4 °F -24.3 °F -16.6 °F 71% 29.87 in 5.0 mi SSW 6.9 mph - N/A   Overcast
8:56 AM -7.6 °F -22.1 °F -13.0 °F 77% 29.89 in 5.0 mi SSW 6.9 mph - N/A   Overcast
9:16 AM -7.6 °F -24.6 °F -13.0 °F 77% 29.88 in 7.0 mi SSW 9.2 mph - N/A   Overcast
9:36 AM -7.6 °F -25.7 °F -14.8 °F 71% 29.89 in 3.0 mi SW 10.4 mph - N/A   Overcast
9:56 AM -7.6 °F -24.6 °F -11.2 °F 84% 29.89 in 3.0 mi SSW 9.2 mph - N/A   Overcast
10:16 AM -5.8 °F -22.4 °F -11.2 °F 77% 29.90 in 3.0 mi SW 9.2 mph - N/A   Overcast
10:36 AM -5.8 °F -22.4 °F -14.8 °F 65% 29.90 in 4.0 mi SSW 9.2 mph - N/A   Overcast
10:56 AM -5.8 °F -22.4 °F -13.0 °F 71% 29.91 in 5.0 mi SSW 9.2 mph - N/A   Overcast
11:16 AM -5.8 °F -21.2 °F -9.4 °F 84% 29.91 in 5.0 mi SSW 8.1 mph - N/A   Overcast
11:36 AM -5.8 °F -21.2 °F -9.4 °F 84% 29.92 in 3.0 mi SSW 8.1 mph - N/A   Overcast
11:56 AM -5.8 °F -22.4 °F -13.0 °F 71% 29.92 in 3.0 mi SSW 9.2 mph - N/A   Overcast
12:16 PM -4.0 °F -20.2 °F -11.2 °F 71% 29.93 in 2.0 mi SSW 9.2 mph - N/A   Overcast
12:36 PM -4.0 °F -19.0 °F -7.6 °F 85% 29.93 in 2.0 mi SSW 8.1 mph - N/A   Overcast
12:56 PM -4.0 °F -19.0 °F -9.4 °F 78% 29.94 in 3.0 mi SSW 8.1 mph - N/A   Overcast
1:16 PM -4.0 °F -19.0 °F -13.0 °F 65% 29.94 in 3.0 mi SSW 8.1 mph - N/A   Overcast
1:36 PM -4.0 °F -19.0 °F -11.2 °F 71% 29.94 in 4.0 mi SW 8.1 mph - N/A   Overcast
1:56 PM -4.0 °F -19.0 °F -5.8 °F 92% 29.95 in 5.0 mi SSW 8.1 mph - N/A   Overcast
2:16 PM -4.0 °F -17.8 °F -7.6 °F 85% 29.95 in 4.0 mi SW 6.9 mph - N/A   Overcast
2:36 PM -4.0 °F -19.0 °F -13.0 °F 65% 29.95 in 4.0 mi SW 8.1 mph - N/A   Overcast
2:56 PM -4.0 °F -16.3 °F -11.2 °F 71% 29.95 in 4.0 mi SW 5.8 mph - N/A   Overcast
3:16 PM -4.0 °F -17.8 °F -5.8 °F 92% 29.95 in 4.0 mi SW 6.9 mph - N/A   Overcast
3:36 PM -2.2 °F -15.6 °F -7.6 °F 78% 29.96 in 3.0 mi SW 6.9 mph - N/A   Overcast
3:56 PM -2.2 °F -14.2 °F -11.2 °F 66% 29.96 in 1.5 mi SW 5.8 mph - N/A   Overcast
4:16 PM -4.0 °F -17.8 °F -13.0 °F 65% 29.96 in 4.0 mi SW 6.9 mph - N/A   Overcast
4:36 PM -4.0 °F -17.8 °F -5.8 °F 92% 29.97 in 2.5 mi SW 6.9 mph - N/A   Overcast
4:56 PM -4.0 °F -14.6 °F -9.4 °F 78% 29.97 in 9.0 mi SW 4.6 mph - N/A   Overcast
5:16 PM -4.0 °F -14.6 °F -16.6 °F 55% 29.97 in 7.0 mi SW 4.6 mph - N/A   Mostly Cloudy
5:36 PM -5.8 °F -14.5 °F -11.2 °F 77% 29.98 in 10.0 mi SW 3.5 mph - N/A   Partly Cloudy
5:56 PM -5.8 °F -16.7 °F -7.6 °F 92% 29.99 in 10.0 mi SW 4.6 mph - N/A   Clear
6:16 PM -5.8 °F -16.7 °F -16.6 °F 60% 29.99 in 10.0 mi WSW 4.6 mph - N/A   Clear
6:36 PM -7.6 °F -18.8 °F -16.6 °F 65% 29.99 in 10.0 mi WSW 4.6 mph - N/A   Clear
6:56 PM -7.6 °F -18.8 °F -11.2 °F 84% 30.00 in 10.0 mi WSW 4.6 mph - N/A   Clear
7:16 PM -7.6 °F -16.5 °F -18.4 °F 59% 30.00 in 10.0 mi WSW 3.5 mph - N/A   Clear
7:36 PM -9.4 °F -18.6 °F -16.6 °F 71% 30.01 in 10.0 mi West 3.5 mph - N/A   Partly Cloudy
7:56 PM -9.4 °F -18.6 °F -14.8 °F 77% 30.01 in 8.0 mi West 3.5 mph - N/A   Mostly Cloudy
8:16 PM -9.4 °F -18.6 °F -18.4 °F 65% 30.02 in 10.0 mi WSW 3.5 mph - N/A   Overcast
8:36 PM -9.4 °F -18.6 °F -16.6 °F 71% 30.02 in 10.0 mi WSW 3.5 mph - N/A   Partly Cloudy
8:56 PM -9.4 °F -18.6 °F -18.4 °F 65% 30.03 in 10.0 mi WSW 3.5 mph - N/A   Partly Cloudy
9:16 PM -11.2 °F -20.6 °F -18.4 °F 70% 30.04 in 10.0 mi SSW 3.5 mph - N/A   Mostly Cloudy
9:36 PM -11.2 °F -20.6 °F -18.4 °F 70% 30.04 in 10.0 mi SW 3.5 mph - N/A   Mostly Cloudy
9:56 PM -11.2 °F - -20.2 °F 64% 30.04 in 10.0 mi Calm Calm - N/A   Scattered Clouds
10:16 PM -9.4 °F - -11.2 °F 92% 30.05 in 10.0 mi Calm Calm - N/A   Partly Cloudy
10:36 PM -9.4 °F -20.9 °F -20.2 °F 59% 30.05 in 10.0 mi WSW 4.6 mph - N/A   Clear
10:56 PM -11.2 °F -23.0 °F -18.4 °F 70% 30.05 in 10.0 mi West 4.6 mph - N/A   Clear
11:16 PM -11.2 °F -20.6 °F -22.0 °F 59% 30.06 in 10.0 mi West 3.5 mph - N/A   Clear
11:36 PM -11.2 °F - -16.6 °F 77% 30.07 in 10.0 mi Calm Calm - N/A   Clear
11:56 PM -9.4 °F - -16.6 °F 71% 30.08 in 10.0 mi Calm Calm - N/A   Clear